Beatrice, NE

11:01 PM CST on February 22, 2017 (GMT -0600)
Beatrice Municipal

Weather History for KBIE - February, 2009

Change the Weather History Date:

Monday, February 16, 2009

  Actual Average Record
Temperature  
Mean Temperature 32 °F -  
Max Temperature 44 °F 39 °F 72 °F (2017)
Min Temperature 21 °F 16 °F -13 °F (1979)
Degree Days  
Heating Degree Days 32    
Moisture  
Dew Point 17 °F    
Average Humidity 57    
Maximum Humidity 74    
Minimum Humidity 39    
Precipitation  
Precipitation 0.00 in - - ()
Sea Level Pressure  
Sea Level Pressure 30.22 in    
Wind  
Wind Speed 10 mph (SSE)    
Max Wind Speed 21 mph    
Max Gust Speed 28 mph    
Visibility 10 miles    
Events      
Averages and records for this station are not official NWS values.
T = Trace of Precipitation, MM = Missing Value Source: NWS Daily Summary

Daily Weather History Graph

Daily Weather History Graph

Search for Another Location

Airport or City:

Trip Planner

Search our weather history database for the weather conditions in past years. The results will help you decide how hot, cold, wet, or windy it might be!

Date:

Astronomy

Feb. 16, 2009 Rise Set
Actual Time 7:18 AM CST 6:04 PM CST
Civil Twilight 6:50 AM CST 6:31 PM CST
Nautical Twilight 6:19 AM CST 7:03 PM CST
Astronomical Twilight 5:47 AM CST 7:35 PM CST
Moon 1:14 AM CST (2/16) 10:38 AM CST (2/16)
Length of Visible Light 11h 40m
Length of Day
10h 45m
Waning Gibbous, 52% of the Moon is Illuminated
Feb 16
Waning Gibbous
Feb 16
Last Quarter
Feb 24
New
Mar 4
First Quarter
Mar 10
Full

Hourly Weather History & Observations

Time (CST) Temp. Windchill Dew Point Humidity Pressure Visibility Wind Dir Wind Speed Gust Speed Precip Events Conditions
12:10 AM 23.0 °F 14.7 °F 14.0 °F 68% 30.34 in 10.0 mi SSE 6.9 mph - N/A   Clear
12:30 AM 23.0 °F 14.7 °F 14.0 °F 68% 30.34 in 10.0 mi SSE 6.9 mph - N/A   Clear
12:50 AM 21.2 °F 12.6 °F 14.0 °F 74% 30.35 in 10.0 mi SSE 6.9 mph - N/A   Clear
1:10 AM 23.0 °F 13.9 °F 14.0 °F 68% 30.34 in 10.0 mi SSE 8.1 mph - N/A   Clear
1:30 AM 23.0 °F 15.8 °F 14.0 °F 68% 30.33 in 10.0 mi SSE 5.8 mph - N/A   Clear
1:50 AM 21.2 °F 12.6 °F 12.2 °F 68% 30.33 in 10.0 mi South 6.9 mph - N/A   Clear
2:10 AM 21.2 °F 13.6 °F 12.2 °F 68% 30.33 in 10.0 mi SSE 5.8 mph - N/A   Clear
2:30 AM 21.2 °F 13.6 °F 12.2 °F 68% 30.32 in 10.0 mi SSE 5.8 mph - N/A   Clear
2:50 AM 21.2 °F 14.9 °F 12.2 °F 68% 30.32 in 10.0 mi SSE 4.6 mph - N/A   Clear
3:10 AM 21.2 °F 13.6 °F 12.2 °F 68% 30.30 in 10.0 mi SSE 5.8 mph - N/A   Clear
3:30 AM 21.2 °F 13.6 °F 12.2 °F 68% 30.30 in 10.0 mi South 5.8 mph - N/A   Clear
3:50 AM 21.2 °F 12.6 °F 12.2 °F 68% 30.30 in 10.0 mi SSE 6.9 mph - N/A   Clear
4:10 AM 21.2 °F 10.9 °F 12.2 °F 68% 30.31 in 10.0 mi South 9.2 mph - N/A   Clear
4:30 AM 23.0 °F 13.9 °F 12.2 °F 63% 30.31 in 10.0 mi South 8.1 mph - N/A   Clear
4:50 AM 23.0 °F 13.9 °F 12.2 °F 63% 30.30 in 10.0 mi SSE 8.1 mph - N/A   Clear
5:10 AM 23.0 °F 14.7 °F 12.2 °F 63% 30.30 in 10.0 mi SE 6.9 mph - N/A   Clear
5:30 AM 21.2 °F 12.6 °F 12.2 °F 68% 30.30 in 10.0 mi SSE 6.9 mph - N/A   Clear
5:50 AM 21.2 °F 11.7 °F 12.2 °F 68% 30.30 in 10.0 mi SSE 8.1 mph - N/A   Clear
6:10 AM 21.2 °F 11.7 °F 12.2 °F 68% 30.30 in 10.0 mi South 8.1 mph - N/A   Clear
6:30 AM 21.2 °F 12.6 °F 12.2 °F 68% 30.30 in 10.0 mi SSE 6.9 mph - N/A   Clear
6:50 AM 23.0 °F 15.8 °F 12.2 °F 63% 30.30 in 10.0 mi SSE 5.8 mph - N/A   Clear
7:10 AM 21.2 °F 12.6 °F 12.2 °F 68% 30.30 in 10.0 mi South 6.9 mph - N/A   Clear
7:30 AM 23.0 °F 14.7 °F 12.2 °F 63% 30.31 in 10.0 mi SSE 6.9 mph - N/A   Clear
7:50 AM 23.0 °F 14.7 °F 14.0 °F 68% 30.31 in 10.0 mi SSE 6.9 mph - N/A   Clear
8:10 AM 23.0 °F 14.7 °F 14.0 °F 68% 30.31 in 10.0 mi SSE 6.9 mph - N/A   Clear
8:30 AM 24.8 °F 15.3 °F 14.0 °F 64% 30.30 in 10.0 mi SSE 9.2 mph - N/A   Clear
8:50 AM 26.6 °F 16.8 °F 14.0 °F 59% 30.30 in 10.0 mi SSE 10.4 mph - N/A   Clear
9:10 AM 28.4 °F 18.0 °F 15.8 °F 59% 30.30 in 10.0 mi South 12.7 mph 18.4 mph N/A   Clear
9:30 AM 30.2 °F 19.8 °F 15.8 °F 55% 30.30 in 10.0 mi South 13.8 mph - N/A   Clear
9:50 AM 30.2 °F 20.2 °F 17.6 °F 60% 30.30 in 10.0 mi South 12.7 mph - N/A   Clear
10:10 AM 32.0 °F 20.8 °F 17.6 °F 55% 30.29 in 10.0 mi South 17.3 mph 23.0 mph N/A   Clear
10:30 AM 32.0 °F 20.8 °F 19.4 °F 60% 30.28 in 10.0 mi South 17.3 mph 21.9 mph N/A   Clear
10:50 AM 33.8 °F 23.2 °F 19.4 °F 56% 30.27 in 10.0 mi South 17.3 mph 23.0 mph N/A   Clear
11:10 AM 33.8 °F 23.2 °F 19.4 °F 56% 30.26 in 10.0 mi South 17.3 mph - N/A   Clear
11:30 AM 33.8 °F 23.9 °F 19.4 °F 56% 30.24 in 10.0 mi South 15.0 mph - N/A   Clear
11:50 AM 35.6 °F 25.2 °F 19.4 °F 52% 30.22 in 10.0 mi SSE 18.4 mph 23.0 mph N/A   Clear
12:10 PM 35.6 °F 25.2 °F 19.4 °F 52% 30.21 in 10.0 mi South 18.4 mph 23.0 mph N/A   Clear
12:30 PM 37.4 °F 27.5 °F 21.2 °F 52% 30.18 in 10.0 mi SSE 18.4 mph - N/A   Clear
12:50 PM 37.4 °F 26.9 °F 19.4 °F 48% 30.17 in 10.0 mi South 20.7 mph 27.6 mph N/A   Clear
1:10 PM 37.4 °F 27.5 °F 19.4 °F 48% 30.15 in 10.0 mi South 18.4 mph 25.3 mph N/A   Clear
1:30 PM 39.2 °F 29.6 °F 19.4 °F 45% 30.14 in 10.0 mi South 19.6 mph 24.2 mph N/A   Clear
1:50 PM 41.0 °F 31.9 °F 21.2 °F 45% 30.12 in 10.0 mi South 19.6 mph 26.5 mph N/A   Clear
2:10 PM 41.0 °F 32.2 °F 21.2 °F 45% 30.10 in 10.0 mi South 18.4 mph 21.9 mph N/A   Clear
2:30 PM 41.0 °F 31.9 °F 21.2 °F 45% 30.08 in 10.0 mi South 19.6 mph 26.5 mph N/A   Clear
2:50 PM 42.8 °F 34.3 °F 21.2 °F 42% 30.06 in 10.0 mi South 19.6 mph 24.2 mph N/A   Clear
3:10 PM 42.8 °F 34.5 °F 21.2 °F 42% 30.05 in 10.0 mi South 18.4 mph 24.2 mph N/A   Clear
3:30 PM 42.8 °F 34.8 °F 23.0 °F 46% 30.04 in 10.0 mi South 17.3 mph 25.3 mph N/A   Clear
3:50 PM 44.6 °F 37.8 °F 21.2 °F 39% 30.05 in 10.0 mi South 15.0 mph 25.3 mph N/A   Clear
4:10 PM 44.6 °F 36.9 °F 21.2 °F 39% 30.04 in 10.0 mi South 18.4 mph 26.5 mph N/A   Clear
4:30 PM 44.6 °F 36.9 °F 21.2 °F 39% 30.03 in 10.0 mi South 18.4 mph - N/A   Clear
4:50 PM 44.6 °F 37.8 °F 21.2 °F 39% 30.02 in 10.0 mi South 15.0 mph - N/A   Clear
5:10 PM 44.6 °F 38.4 °F 23.0 °F 43% 30.02 in 10.0 mi South 12.7 mph 19.6 mph N/A   Clear
5:30 PM 42.8 °F 36.2 °F 23.0 °F 46% 30.02 in 10.0 mi South 12.7 mph 17.3 mph N/A   Clear
5:50 PM 42.8 °F 37.5 °F 23.0 °F 46% 30.01 in 10.0 mi South 9.2 mph - N/A   Clear
6:10 PM 42.8 °F 37.0 °F 23.0 °F 46% 30.01 in 10.0 mi South 10.4 mph - N/A   Clear
6:30 PM 39.2 °F 32.5 °F 24.8 °F 56% 30.01 in 10.0 mi South 10.4 mph - N/A   Clear
6:50 PM 37.4 °F 30.8 °F 24.8 °F 60% 30.00 in 10.0 mi South 9.2 mph - N/A   Clear
7:10 PM 37.4 °F 30.8 °F 24.8 °F 60% 30.00 in 10.0 mi SSE 9.2 mph - N/A   Clear
7:30 PM 37.4 °F 30.3 °F 24.8 °F 60% 29.99 in 10.0 mi South 10.4 mph - N/A   Clear
7:50 PM 37.4 °F 29.8 °F 24.8 °F 60% 29.99 in 10.0 mi South 11.5 mph - N/A   Clear
8:10 PM 37.4 °F 30.8 °F 24.8 °F 60% 29.98 in 10.0 mi SSE 9.2 mph - N/A   Clear
8:30 PM 35.6 °F 29.2 °F 26.6 °F 70% 29.98 in 10.0 mi SSE 8.1 mph - N/A   Clear
8:50 PM 35.6 °F 28.0 °F 26.6 °F 70% 29.98 in 10.0 mi SSE 10.4 mph - N/A   Clear
9:10 PM 35.6 °F 28.6 °F 26.6 °F 70% 29.97 in 10.0 mi SSE 9.2 mph - N/A   Clear
9:30 PM 35.6 °F 28.6 °F 26.6 °F 70% 29.96 in 10.0 mi SSE 9.2 mph - N/A   Clear
9:50 PM 33.8 °F 27.0 °F 26.6 °F 75% 29.96 in 10.0 mi SSE 8.1 mph - N/A   Clear
10:10 PM 33.8 °F 25.8 °F 26.6 °F 75% 29.95 in 10.0 mi SSE 10.4 mph - N/A   Clear
10:30 PM 33.8 °F 26.4 °F 28.4 °F 81% 29.94 in 10.0 mi SSE 9.2 mph - N/A   Clear
10:50 PM 33.8 °F 25.8 °F 28.4 °F 81% 29.93 in 10.0 mi SSE 10.4 mph - N/A   Clear
11:10 PM 35.6 °F 27.5 °F 30.2 °F 81% 29.91 in 10.0 mi South 11.5 mph - N/A   Clear
11:30 PM 35.6 °F 28.0 °F 30.2 °F 81% 29.91 in 10.0 mi South 10.4 mph - N/A   Clear
11:50 PM 35.6 °F 27.1 °F 30.2 °F 81% 29.90 in 10.0 mi South 12.7 mph - N/A   Clear